Jackson, TN

5:47 PM CDT on June 27, 2017 (GMT -0500)
McKellar-Sipes Regional

Weather History for KMKL - December, 2013

Change the Weather History Date:

Thursday, December 19, 2013

  Actual Average Record
Temperature  
Mean Temperature 51 °F 40 °F  
Max Temperature 59 °F 50 °F 73 °F (2008)
Min Temperature 42 °F 30 °F 6 °F (1963)
Degree Days  
Heating Degree Days 14 25  
Month to date heating degree days 468 440  
Since 1 July heating degree days 1258 1107  
Cooling Degree Days 0 0  
Month to date cooling degree days 4 0  
Year to date cooling degree days 1596 1697  
Growing Degree Days 2 (Base 50)    
Moisture  
Dew Point 41 °F    
Average Humidity 62    
Maximum Humidity 70    
Minimum Humidity 54    
Precipitation  
Precipitation 0.00 in 0.16 in 3.90 in (2002)
Month to date precipitation 3.20 3.45  
Year to date precipitation 56.77 51.37  
Snow  
Snow 0.00 in - - ()
Month to date snowfall T  
Snow Depth 0.00 in    
Sea Level Pressure  
Sea Level Pressure 30.09 in    
Wind  
Wind Speed 9 mph (South)    
Max Wind Speed 21 mph    
Max Gust Speed 25 mph    
Visibility 10 miles    
Events      
T = Trace of Precipitation, MM = Missing Value Source: NWS Daily Summary

Daily Weather History Graph

Daily Weather History Graph

Search for Another Location

Airport or City:

Trip Planner

Search our weather history database for the weather conditions in past years. The results will help you decide how hot, cold, wet, or windy it might be!

Date:

Astronomy

Dec. 19, 2013 Rise Set
Actual Time 7:00 AM CST 4:45 PM CST
Civil Twilight 6:32 AM CST 5:13 PM CST
Nautical Twilight 6:00 AM CST 5:45 PM CST
Astronomical Twilight 5:28 AM CST 6:17 PM CST
Moon 7:06 PM CST (12/19) 8:22 AM CST (12/19)
Length of Visible Light 10h 41m
Length of Day
9h 45m
Waning Gibbous, 95% of the Moon is Illuminated
Dec 19
Waning Gibbous
Dec 25
Last Quarter
Jan 1
New
Jan 7
First Quarter
Jan 15
Full

Hourly Weather History & Observations

Time (CST) Temp. Windchill Dew Point Humidity Pressure Visibility Wind Dir Wind Speed Gust Speed Precip Events Conditions
12:53 AM 48.0 °F - 33.1 °F 56% 30.13 in 10.0 mi South 9.2 mph - N/A   Clear
1:53 AM 45.0 °F 41.8 °F 33.1 °F 63% 30.14 in 10.0 mi South 5.8 mph - N/A   Clear
2:53 AM 44.1 °F 40.8 °F 33.1 °F 65% 30.15 in 10.0 mi South 5.8 mph - N/A   Clear
3:53 AM 44.1 °F 40.8 °F 34.0 °F 68% 30.14 in 10.0 mi South 5.8 mph - N/A   Clear
4:53 AM 46.0 °F 41.4 °F 35.1 °F 66% 30.14 in 10.0 mi South 9.2 mph - N/A   Clear
5:53 AM 45.0 °F 41.2 °F 35.1 °F 68% 30.14 in 10.0 mi South 6.9 mph - N/A   Clear
6:53 AM 46.0 °F 41.4 °F 35.1 °F 66% 30.16 in 10.0 mi South 9.2 mph - N/A   Scattered Clouds
7:05 AM 46.4 °F 42.4 °F 35.6 °F 66% 30.15 in 10.0 mi South 8.1 mph - N/A   Mostly Cloudy
7:53 AM 48.0 °F - 37.0 °F 66% 30.16 in 10.0 mi South 10.4 mph - N/A   Mostly Cloudy
8:10 AM 48.2 °F - 37.4 °F 66% 30.16 in 10.0 mi South 10.4 mph - N/A   Partly Cloudy
8:53 AM 51.1 °F - 37.9 °F 61% 30.17 in 10.0 mi South 9.2 mph - N/A   Clear
9:53 AM 55.9 °F - 42.1 °F 60% 30.16 in 10.0 mi SSW 12.7 mph - N/A   Clear
10:53 AM 57.9 °F - 44.1 °F 60% 30.15 in 10.0 mi SSW 13.8 mph - N/A   Mostly Cloudy
11:53 AM 59.0 °F - 45.0 °F 60% 30.12 in 10.0 mi SSW 13.8 mph 20.7 mph N/A   Overcast
12:53 PM 57.9 °F - 46.0 °F 65% 30.09 in 10.0 mi South 12.7 mph 18.4 mph N/A   Overcast
1:53 PM 57.9 °F - 46.0 °F 65% 30.08 in 10.0 mi SSW 8.1 mph - N/A   Overcast
2:53 PM 57.9 °F - 46.0 °F 65% 30.06 in 10.0 mi South 5.8 mph - N/A   Overcast
3:53 PM 57.9 °F - 46.9 °F 67% 30.03 in 10.0 mi Calm Calm - N/A   Overcast
4:53 PM 57.9 °F - 46.9 °F 67% 30.01 in 10.0 mi SSE 6.9 mph - N/A   Overcast
5:53 PM 57.0 °F - 46.0 °F 67% 30.00 in 10.0 mi SSE 6.9 mph - N/A   Mostly Cloudy
6:53 PM 57.0 °F - 46.9 °F 69% 29.99 in 10.0 mi South 10.4 mph 16.1 mph N/A   Mostly Cloudy
7:53 PM 59.0 °F - 46.0 °F 62% 29.99 in 10.0 mi South 12.7 mph 21.9 mph N/A   Overcast
8:53 PM 59.0 °F - 46.9 °F 64% 29.99 in 10.0 mi SSE 8.1 mph 18.4 mph N/A   Overcast
9:53 PM 59.0 °F - 46.9 °F 64% 29.98 in 10.0 mi South 12.7 mph 18.4 mph N/A   Overcast
10:53 PM 59.0 °F - 46.9 °F 64% 29.99 in 10.0 mi South 9.2 mph 20.7 mph N/A   Overcast
11:53 PM 59.0 °F - 46.9 °F 64% 29.98 in 10.0 mi South 13.8 mph 20.7 mph N/A   Overcast